Location: Spring Creek
(38.2870°N, 100.2160°W)
Time: 22:40:36
(UTC+00:00)

Cosmos 2219 - Pass Details

Date: 08 May 2021
Orbit: 832 x 861 km, 71.1° (Epoch: 20 June)

Event Time Altitude Azimuth Distance (km) Brightness Sun altitude
Rises 09:08:26 0° 342° (NNW) 3,417 6.8 -24.2°
Reaches altitude 10° 09:10:58 10° 348° (NNW) 2,482 6.1 -23.9°
Maximum altitude 09:16:30 50° 64° (ENE) 1,083 4.1 -23.1°
Drops below altitude 10° 09:22:02 10° 139° (SE) 2,485 5.6 -22.4°
Sets 09:24:34 0° 144° (SE) 3,420 6.3 -22.1°
